QPF
0.00 0.00 0.00 0.00 0.00 0.00 0.00 0.00 0.00 0.00 0.00 0.00 0.00 0.00 0.00 0.01 0.01 0.02 0.02 0.02 0.03 0.04 0.08 0.13 0.15 0.22 0.34 0.43 0.35 0.27 0.25 0.21 0.16 0.11 0.08 0.06 0.05 0.05 0.03 0.01 0.00 0.00 0.00 0.00
0.00 0.00 0.00 0.00 0.00 0.00 0.00 0.00 0.00 0.00 0.00 0.00 0.00 0.00 0.00 0.00 0.01 0.01 0.02 0.02 0.03 0.05 0.07 0.09 0.12 0.17 0.26 0.38 0.37 0.34 0.27 0.21 0.16 0.12 0.10 0.10 0.08 0.06 0.04 0.01 0.01 0.00 0.00 0.00
0.00 0.00 0.00 0.00 0.00 0.00 0.00 0.00 0.00 0.00 0.00 0.00 0.00 0.00 0.00 0.01 0.01 0.01 0.02 0.02 0.02 0.04 0.04 0.05 0.08 0.16 0.26 0.29 0.31 0.33 0.35 0.26 0.19 0.16 0.13 0.12 0.10 0.06 0.04 0.02 0.01 0.01 0.00 0.00
0.00 0.00 0.00 0.00 0.00 0.00 0.00 0.00 0.00 0.00 0.00 0.01 0.01 0.00 0.00 0.01 0.01 0.01 0.01 0.01 0.01 0.02 0.02 0.03 0.05 0.10 0.20 0.21 0.21 0.22 0.25 0.25 0.20 0.17 0.16 0.11 0.08 0.07 0.05 0.04 0.03 0.01 0.01 0.00
0.00 0.00 0.00 0.00 0.00 0.00 0.00 0.00 0.00 0.00 0.00 0.00 0.00 0.00 0.00 0.00 0.00 0.00 0.00 0.00 0.01 0.01 0.01 0.01 0.03 0.06 0.14 0.14 0.14 0.17 0.19 0.20 0.18 0.15 0.12 0.10 0.06 0.04 0.05 0.05 0.04 0.02 0.01 0.00
0.00 0.00 0.00 0.00 0.00 0.00 0.00 0.00 0.00 0.00 0.00 0.00 0.00 0.00 0.00 0.00 0.00 0.00 0.00 0.00 0.00 0.01 0.01 0.02 0.02 0.04 0.12 0.10 0.10 0.13 0.13 0.13 0.15 0.12 0.09 0.06 0.04 0.04 0.05 0.05 0.03 0.02 0.01 0.00
0.00 0.00 0.00 0.00 0.00 0.00 0.00 0.00 0.00 0.00 0.00 0.00 0.00 0.00 0.01 0.00 0.00 0.00 0.00 0.00 0.00 0.01 0.01 0.01 0.02 0.03 0.09 0.07 0.08 0.10 0.11 0.11 0.12 0.10 0.07 0.05 0.04 0.04 0.05 0.05 0.04 0.02 0.01 0.00
0.00 0.00 0.00 0.00 0.00 0.00 0.00 0.00 0.00 0.00 0.00 0.00 0.00 0.00 0.00 0.00 0.00 0.00 0.00 0.00 0.00 0.00 0.00 0.01 0.02 0.03 0.07 0.05 0.06 0.09 0.11 0.10 0.09 0.09 0.07 0.07 0.06 0.04 0.04 0.05 0.04 0.02 0.01 0.00
0.00 0.00 0.00 0.00 0.00 0.00 0.00 0.00 0.01 0.01 0.01 0.00 0.00 0.00 0.00 0.00 0.01 0.00 0.00 0.00 0.00 0.00 0.00 0.00 0.01 0.03 0.04 0.04 0.04 0.06 0.08 0.08 0.08 0.07 0.07 0.07 0.07 0.05 0.04 0.05 0.04 0.03 0.02 0.01
0.00 0.00 0.00 0.00 0.00 0.00 0.00 0.01 0.01 0.02 0.01 0.01 0.00 0.00 0.00 0.01 0.00 0.00 0.00 0.00 0.00 0.00 0.00 0.00 0.01 0.02 0.03 0.03 0.05 0.07 0.08 0.09 0.09 0.07 0.06 0.06 0.05 0.05 0.04 0.04 0.05 0.05 0.03 0.01
0.00 0.00 0.00 0.00 0.00 0.00 0.01 0.01 0.01 0.01 0.01 0.01 0.01 0.00 0.01 0.01 0.00 0.00 0.00 0.00 0.00 0.00 0.01 0.01 0.01 0.01 0.02 0.03 0.05 0.06 0.09 0.10 0.09 0.07 0.07 0.06 0.05 0.05 0.04 0.05 0.05 0.05 0.04 0.02
0.00 0.00 0.00 0.00 0.00 0.00 0.00 0.00 0.01 0.01 0.01 0.01 0.01 0.01 0.00 0.00 0.00 0.00 0.00 0.01 0.01 0.01 0.01 0.01 0.01 0.01 0.02 0.02 0.03 0.04 0.07 0.08 0.07 0.07 0.07 0.06 0.05 0.04 0.04 0.05 0.05 0.05 0.05 0.03
0.00 0.00 0.01 0.00 0.00 0.00 0.00 0.00 0.01 0.00 0.00 0.01 0.01 0.01 0.00 0.00 0.00 0.00 0.01 0.01 0.01 0.01 0.01 0.01 0.01 0.02 0.02 0.03 0.04 0.06 0.07 0.07 0.07 0.08 0.07 0.07 0.05 0.04 0.04 0.05 0.06 0.05 0.04 0.03
0.00 0.01 0.00 0.01 0.00 0.01 0.00 0.01 0.01 0.00 0.00 0.00 0.00 0.00 0.00 0.00 0.00 0.01 0.01 0.01 0.01 0.01 0.01 0.01 0.01 0.02 0.03 0.03 0.04 0.07 0.10 0.08 0.08 0.09 0.08 0.07 0.07 0.08 0.07 0.06 0.06 0.05 0.04 0.04
0.00 0.00 0.00 0.00 0.00 0.00 0.01 0.01 0.01 0.01 0.01 0.01 0.00 0.01 0.01 0.00 0.00 0.01 0.01 0.01 0.01 0.01 0.01 0.02 0.01 0.02 0.02 0.02 0.03 0.06 0.09 0.10 0.10 0.10 0.09 0.09 0.09 0.09 0.10 0.08 0.07 0.08 0.08 0.08
0.00 0.00 0.00 0.00 0.00 0.00 0.00 0.00 0.01 0.01 0.01 0.01 0.00 0.01 0.01 0.01 0.01 0.01 0.01 0.01 0.02 0.01 0.01 0.02 0.02 0.02 0.03 0.02 0.03 0.03 0.05 0.09 0.10 0.12 0.13 0.11 0.11 0.12 0.11 0.11 0.13 0.12 0.13 0.14
0.00 0.00 0.00 0.00 0.00 0.00 0.00 0.00 0.01 0.01 0.01 0.01 0.01 0.01 0.01 0.01 0.01 0.02 0.01 0.01 0.01 0.01 0.02 0.03 0.04 0.04 0.05 0.05 0.07 0.08 0.08 0.08 0.09 0.12 0.15 0.15 0.13 0.15 0.16 0.15 0.15 0.14 0.15 0.18
0.00 0.00 0.01 0.01 0.01 0.01 0.01 0.01 0.01 0.01 0.01 0.01 0.01 0.01 0.01 0.02 0.03 0.04 0.04 0.03 0.03 0.03 0.03 0.04 0.05 0.06 0.07 0.08 0.08 0.08 0.10 0.12 0.14 0.17 0.18 0.18 0.16 0.13 0.12 0.12 0.11 0.13 0.15 0.18
0.00 0.01 0.02 0.02 0.02 0.01 0.01 0.02 0.02 0.02 0.02 0.02 0.02 0.02 0.03 0.05 0.07 0.07 0.06 0.05 0.05 0.04 0.04 0.05 0.05 0.06 0.07 0.09 0.10 0.10 0.11 0.11 0.12 0.11 0.11 0.11 0.10 0.09 0.09 0.10 0.11 0.12 0.14 0.15
0.01 0.02 0.03 0.02 0.02 0.02 0.02 0.03 0.03 0.03 0.03 0.04 0.04 0.05 0.06 0.07 0.07 0.10 0.08 0.06 0.04 0.03 0.04 0.05 0.05 0.05 0.06 0.07 0.08 0.10 0.11 0.10 0.10 0.09 0.08 0.07 0.07 0.07 0.08 0.10 0.11 0.12 0.11 0.13
0.03 0.03 0.03 0.02 0.03 0.05 0.04 0.04 0.05 0.04 0.03 0.06 0.06 0.06 0.06 0.07 0.06 0.08 0.07 0.05 0.04 0.03 0.04 0.04 0.04 0.03 0.04 0.06 0.06 0.06 0.06 0.06 0.06 0.05 0.04 0.05 0.08 0.10 0.12 0.13 0.14 0.15 0.16 0.20
0.05 0.05 0.04 0.04 0.05 0.06 0.06 0.05 0.06 0.06 0.05 0.07 0.08 0.08 0.08 0.07 0.07 0.07 0.06 0.06 0.04 0.03 0.03 0.02 0.02 0.02 0.02 0.03 0.04 0.04 0.03 0.02 0.02 0.02 0.02 0.02 0.04 0.05 0.08 0.12 0.12 0.12 0.13 0.13
0.06 0.06 0.06 0.09 0.09 0.08 0.08 0.06 0.07 0.07 0.07 0.08 0.10 0.10 0.10 0.11 0.10 0.08 0.07 0.05 0.03 0.02 0.02 0.01 0.01 0.01 0.02 0.02 0.02 0.02 0.01 0.01 0.01 0.01 0.01 0.01 0.01 0.02 0.02 0.03 0.04 0.04 0.04 0.05
0.09 0.08 0.08 0.15 0.14 0.09 0.08 0.09 0.10 0.12 0.11 0.10 0.10 0.12 0.14 0.15 0.11 0.09 0.07 0.04 0.01 0.01 0.01 0.01 0.01 0.01 0.01 0.01 0.01 0.01 0.00 0.00 0.00 0.00 0.00 0.00 0.01 0.02 0.03 0.04 0.06 0.06 0.05 0.05
0.14 0.15 0.12 0.11 0.12 0.10 0.09 0.12 0.16 0.19 0.17 0.14 0.13 0.12 0.11 0.10 0.10 0.08 0.06 0.03 0.01 0.01 0.00 0.00 0.00 0.00 0.00 0.00 0.00 0.00 0.00 0.00 0.00 0.00 0.00 0.00 0.00 0.01 0.01 0.01 0.03 0.05 0.05 0.05
0.12 0.13 0.15 0.13 0.11 0.12 0.14 0.17 0.17 0.19 0.19 0.16 0.14 0.12 0.11 0.09 0.07 0.04 0.02 0.01 0.01 0.00 0.00 0.00 0.00 0.00 0.00 0.00 0.00 0.00 0.00 0.00 0.00 0.00 0.00 0.00 0.00 0.00 0.00 0.00 0.00 0.01 0.02 0.03
MSLP
1010.89 1011.64 1012.15 1012.43 1012.53 1012.49 1012.37 1012.21 1012.02 1011.79 1011.49 1011.11 1010.61 1010.03 1009.39 1008.74 1008.16 1007.70 1007.39 1007.25 1007.26 1007.38 1007.56 1007.77 1007.98 1008.19 1008.42 1008.71 1009.10 1009.62 1010.30 1011.10 1011.99 1012.90 1013.77 1014.54 1015.18 1015.67 1016.01 1016.26 1016.45 1016.63 1016.84 1017.09
1011.28 1011.88 1012.24 1012.40 1012.42 1012.38 1012.33 1012.31 1012.31 1012.28 1012.18 1011.94 1011.53 1010.98 1010.30 1009.58 1008.89 1008.33 1007.93 1007.71 1007.66 1007.73 1007.87 1008.01 1008.14 1008.25 1008.37 1008.56 1008.86 1009.33 1010.00 1010.83 1011.79 1012.79 1013.77 1014.63 1015.34 1015.85 1016.20 1016.42 1016.58 1016.72 1016.91 1017.15
1011.32 1011.76 1011.97 1012.01 1012.00 1012.00 1012.07 1012.24 1012.46 1012.66 1012.76 1012.67 1012.35 1011.81 1011.10 1010.29 1009.51 1008.84 1008.35 1008.07 1007.98 1008.03 1008.15 1008.26 1008.35 1008.39 1008.43 1008.52 1008.74 1009.15 1009.79 1010.63 1011.63 1012.70 1013.74 1014.68 1015.44 1015.99 1016.35 1016.56 1016.69 1016.80 1016.97 1017.21
1011.05 1011.31 1011.38 1011.35 1011.33 1011.42 1011.66 1012.05 1012.52 1012.96 1013.26 1013.31 1013.07 1012.52 1011.75 1010.84 1009.95 1009.17 1008.61 1008.28 1008.18 1008.24 1008.37 1008.51 1008.59 1008.61 1008.60 1008.64 1008.79 1009.13 1009.72 1010.53 1011.53 1012.62 1013.70 1014.68 1015.47 1016.05 1016.41 1016.62 1016.74 1016.85 1017.00 1017.24
1010.57 1010.65 1010.61 1010.54 1010.57 1010.79 1011.23 1011.86 1012.59 1013.26 1013.73 1013.89 1013.68 1013.11 1012.24 1011.22 1010.19 1009.31 1008.68 1008.32 1008.23 1008.34 1008.54 1008.75 1008.88 1008.93 1008.92 1008.92 1009.02 1009.29 1009.81 1010.56 1011.50 1012.57 1013.63 1014.61 1015.42 1016.01 1016.39 1016.61 1016.73 1016.85 1017.01 1017.25
1010.01 1009.94 1009.81 1009.74 1009.85 1010.24 1010.89 1011.76 1012.72 1013.59 1014.20 1014.43 1014.21 1013.56 1012.58 1011.42 1010.26 1009.27 1008.57 1008.21 1008.16 1008.35 1008.66 1008.98 1009.22 1009.35 1009.38 1009.38 1009.44 1009.64 1010.07 1010.72 1011.57 1012.55 1013.56 1014.50 1015.29 1015.88 1016.27 1016.51 1016.66 1016.79 1016.97 1017.24
1009.50 1009.31 1009.13 1009.09 1009.31 1009.86 1010.72 1011.80 1012.95 1013.96 1014.65 1014.89 1014.63 1013.88 1012.76 1011.45 1010.16 1009.08 1008.34 1007.98 1008.00 1008.29 1008.74 1009.21 1009.59 1009.83 1009.94 1009.97 1010.01 1010.15 1010.47 1011.00 1011.73 1012.59 1013.50 1014.36 1015.10 1015.68 1016.08 1016.34 1016.52 1016.69 1016.91 1017.21
1009.13 1008.86 1008.66 1008.68 1009.01 1009.70 1010.73 1011.96 1013.23 1014.32 1015.03 1015.24 1014.89 1014.02 1012.76 1011.32 1009.93 1008.77 1008.00 1007.67 1007.76 1008.18 1008.78 1009.41 1009.95 1010.33 1010.54 1010.62 1010.66 1010.74 1010.97 1011.37 1011.96 1012.68 1013.46 1014.22 1014.90 1015.44 1015.84 1016.13 1016.35 1016.56 1016.81 1017.14
1008.93 1008.61 1008.43 1008.50 1008.93 1009.73 1010.86 1012.18 1013.49 1014.58 1015.25 1015.38 1014.93 1013.94 1012.58 1011.04 1009.57 1008.38 1007.61 1007.33 1007.50 1008.03 1008.77 1009.55 1010.25 1010.76 1011.08 1011.22 1011.28 1011.33 1011.48 1011.77 1012.22 1012.79 1013.45 1014.10 1014.71 1015.21 1015.60 1015.90 1016.15 1016.40 1016.69 1017.05
1008.86 1008.55 1008.40 1008.53 1009.01 1009.87 1011.02 1012.34 1013.61 1014.63 1015.22 1015.25 1014.69 1013.62 1012.19 1010.61 1009.13 1007.95 1007.21 1006.98 1007.23 1007.85 1008.69 1009.60 1010.41 1011.04 1011.46 1011.68 1011.77 1011.82 1011.92 1012.12 1012.46 1012.92 1013.45 1014.01 1014.54 1014.99 1015.37 1015.67 1015.94 1016.22 1016.53 1016.90
1008.89 1008.60 1008.49 1008.66 1009.16 1010.00 1011.11 1012.34 1013.49 1014.39 1014.85 1014.77 1014.14 1013.03 1011.60 1010.06 1008.63 1007.51 1006.84 1006.67 1006.97 1007.65 1008.55 1009.52 1010.40 1011.11 1011.60 1011.89 1012.03 1012.11 1012.20 1012.37 1012.64 1013.02 1013.46 1013.94 1014.40 1014.81 1015.15 1015.45 1015.72 1016.00 1016.32 1016.69
1008.95 1008.71 1008.64 1008.82 1009.29 1010.06 1011.05 1012.12 1013.10 1013.82 1014.14 1013.97 1013.31 1012.22 1010.86 1009.43 1008.12 1007.12 1006.54 1006.43 1006.76 1007.45 1008.35 1009.31 1010.21 1010.94 1011.48 1011.82 1012.02 1012.15 1012.27 1012.45 1012.71 1013.05 1013.45 1013.86 1014.26 1014.63 1014.94 1015.21 1015.47 1015.73 1016.04 1016.38
1009.01 1008.84 1008.80 1008.97 1009.38 1010.02 1010.83 1011.69 1012.45 1012.98 1013.15 1012.91 1012.25 1011.25 1010.04 1008.78 1007.65 1006.80 1006.34 1006.29 1006.63 1007.27 1008.11 1009.01 1009.85 1010.56 1011.10 1011.49 1011.75 1011.95 1012.14 1012.37 1012.66 1013.00 1013.38 1013.76 1014.12 1014.44 1014.70 1014.94 1015.17 1015.40 1015.68 1015.99
1009.12 1009.01 1008.99 1009.12 1009.43 1009.90 1010.49 1011.10 1011.62 1011.95 1011.99 1011.70 1011.09 1010.22 1009.20 1008.17 1007.27 1006.61 1006.27 1006.28 1006.60 1007.17 1007.89 1008.66 1009.40 1010.04 1010.56 1010.96 1011.28 1011.56 1011.84 1012.15 1012.49 1012.87 1013.25 1013.62 1013.95 1014.22 1014.44 1014.63 1014.81 1015.01 1015.25 1015.53
1009.30 1009.24 1009.23 1009.30 1009.48 1009.76 1010.10 1010.45 1010.72 1010.85 1010.77 1010.45 1009.92 1009.22 1008.43 1007.66 1007.01 1006.55 1006.35 1006.40 1006.69 1007.15 1007.73 1008.35 1008.95 1009.48 1009.95 1010.35 1010.72 1011.07 1011.45 1011.85 1012.27 1012.69 1013.09 1013.45 1013.75 1013.99 1014.16 1014.31 1014.44 1014.60 1014.80 1015.05
1009.63 1009.60 1009.57 1009.56 1009.58 1009.65 1009.74 1009.83 1009.86 1009.79 1009.60 1009.28 1008.85 1008.33 1007.78 1007.28 1006.88 1006.63 1006.55 1006.65 1006.90 1007.27 1007.69 1008.14 1008.59 1009.01 1009.40 1009.79 1010.19 1010.62 1011.08 1011.56 1012.05 1012.53 1012.95 1013.30 1013.58 1013.77 1013.90 1014.00 1014.11 1014.23 1014.41 1014.64
1010.10 1010.07 1009.99 1009.88 1009.75 1009.60 1009.45 1009.28 1009.09 1008.85 1008.57 1008.25 1007.91 1007.57 1007.26 1007.01 1006.86 1006.81 1006.87 1007.02 1007.24 1007.51 1007.81 1008.11 1008.41 1008.71 1009.04 1009.41 1009.83 1010.31 1010.83 1011.38 1011.93 1012.44 1012.88 1013.22 1013.47 1013.63 1013.73 1013.80 1013.88 1014.00 1014.17 1014.40
1010.70 1010.63 1010.47 1010.24 1009.93 1009.59 1009.21 1008.81 1008.42 1008.04 1007.69 1007.39 1007.14 1006.96 1006.86 1006.85 1006.92 1007.06 1007.25 1007.46 1007.69 1007.90 1008.09 1008.28 1008.47 1008.69 1008.97 1009.31 1009.74 1010.25 1010.82 1011.41 1011.99 1012.51 1012.95 1013.28 1013.51 1013.64 1013.72 1013.78 1013.86 1013.98 1014.17 1014.42
1011.31 1011.16 1010.90 1010.52 1010.06 1009.53 1008.95 1008.38 1007.83 1007.35 1006.95 1006.67 1006.51 1006.48 1006.57 1006.77 1007.04 1007.35 1007.66 1007.96 1008.21 1008.41 1008.56 1008.68 1008.81 1008.98 1009.21 1009.55 1009.97 1010.49 1011.08 1011.68 1012.26 1012.78 1013.21 1013.52 1013.73 1013.86 1013.94 1014.01 1014.11 1014.26 1014.49 1014.77
1011.81 1011.54 1011.14 1010.62 1010.01 1009.32 1008.61 1007.90 1007.26 1006.71 1006.31 1006.07 1006.00 1006.10 1006.36 1006.73 1007.18 1007.65 1008.09 1008.48 1008.80 1009.02 1009.18 1009.29 1009.40 1009.55 1009.78 1010.10 1010.52 1011.03 1011.61 1012.20 1012.77 1013.26 1013.67 1013.97 1014.18 1014.31 1014.41 1014.52 1014.65 1014.86 1015.13 1015.46
1012.03 1011.62 1011.09 1010.44 1009.70 1008.91 1008.10 1007.33 1006.65 1006.11 1005.74 1005.57 1005.60 1005.83 1006.23 1006.75 1007.35 1007.96 1008.53 1009.03 1009.43 1009.73 1009.93 1010.08 1010.21 1010.37 1010.60 1010.92 1011.33 1011.82 1012.36 1012.92 1013.46 1013.93 1014.31 1014.61 1014.82 1014.98 1015.12 1015.27 1015.47 1015.73 1016.05 1016.42
1011.91 1011.34 1010.67 1009.91 1009.09 1008.25 1007.42 1006.67 1006.02 1005.54 1005.25 1005.18 1005.32 1005.68 1006.20 1006.86 1007.59 1008.32 1009.01 1009.62 1010.12 1010.50 1010.78 1010.99 1011.17 1011.36 1011.60 1011.91 1012.30 1012.76 1013.26 1013.78 1014.27 1014.71 1015.08 1015.37 1015.61 1015.81 1016.00 1016.21 1016.48 1016.79 1017.17 1017.57
1011.40 1010.70 1009.92 1009.09 1008.24 1007.41 1006.63 1005.95 1005.41 1005.05 1004.89 1004.94 1005.21 1005.69 1006.33 1007.09 1007.93 1008.76 1009.55 1010.26 1010.85 1011.32 1011.68 1011.97 1012.20 1012.43 1012.68 1012.98 1013.34 1013.76 1014.21 1014.67 1015.12 1015.52 1015.89 1016.19 1016.46 1016.71 1016.97 1017.24 1017.57 1017.94 1018.34 1018.77
1010.58 1009.77 1008.93 1008.08 1007.26 1006.50 1005.84 1005.30 1004.92 1004.72 1004.72 1004.92 1005.33 1005.91 1006.65 1007.50 1008.40 1009.31 1010.18 1010.96 1011.63 1012.18 1012.61 1012.96 1013.24 1013.50 1013.76 1014.04 1014.36 1014.72 1015.11 1015.52 1015.92 1016.30 1016.66 1016.99 1017.30 1017.60 1017.92 1018.26 1018.63 1019.04 1019.46 1019.88
1009.58 1008.73 1007.87 1007.06 1006.32 1005.69 1005.19 1004.84 1004.65 1004.65 1004.82 1005.17 1005.70 1006.38 1007.19 1008.09 1009.04 1009.99 1010.89 1011.72 1012.44 1013.04 1013.53 1013.92 1014.24 1014.50 1014.75 1015.01 1015.28 1015.58 1015.92 1016.27 1016.63 1017.00 1017.36 1017.71 1018.06 1018.42 1018.79 1019.17 1019.58 1019.99 1020.41 1020.81
1008.62 1007.76 1006.95 1006.23 1005.62 1005.16 1004.85 1004.70 1004.72 1004.90 1005.24 1005.72 1006.35 1007.10 1007.95 1008.87 1009.82 1010.77 1011.68 1012.52 1013.26 1013.89 1014.41 1014.82 1015.14 1015.41 1015.64 1015.86 1016.08 1016.33 1016.60 1016.91 1017.24 1017.59 1017.96 1018.34 1018.73 1019.13 1019.53 1019.94 1020.36 1020.76 1021.15 1021.49
Thickness
5775 5760 5749 5754 5759 5760 5756 5750 5747 5761 5777 5769 5762 5761 5764 5765 5761 5757 5753 5750 5746 5744 5744 5742 5739 5737 5733 5730 5728 5728 5726 5725 5723 5722 5720 5719 5718 5718 5718 5719 5719 5719 5719 5718
5756 5751 5763 5768 5767 5762 5755 5748 5749 5763 5774 5767 5758 5758 5764 5763 5759 5758 5755 5751 5748 5744 5740 5738 5737 5735 5732 5730 5728 5726 5725 5724 5723 5723 5722 5721 5719 5716 5717 5717 5717 5717 5717 5717
5749 5760 5773 5768 5763 5757 5755 5750 5752 5754 5764 5762 5754 5749 5756 5760 5761 5758 5756 5754 5751 5747 5742 5739 5736 5734 5732 5729 5728 5727 5724 5724 5723 5722 5720 5718 5716 5714 5713 5714 5714 5715 5716 5716
5751 5765 5767 5762 5759 5760 5748 5764 5763 5758 5746 5735 5741 5724 5745 5751 5751 5754 5754 5752 5751 5749 5746 5741 5738 5735 5733 5732 5731 5729 5726 5725 5724 5723 5721 5718 5715 5713 5714 5714 5714 5714 5714 5714
5751 5764 5762 5758 5765 5767 5762 5768 5761 5753 5742 5731 5732 5723 5732 5745 5745 5750 5753 5754 5754 5751 5747 5744 5741 5738 5735 5734 5733 5730 5727 5725 5724 5723 5722 5720 5717 5716 5714 5713 5713 5712 5712 5713
5760 5771 5771 5770 5777 5776 5771 5759 5748 5735 5726 5717 5727 5720 5724 5737 5747 5752 5755 5756 5756 5754 5751 5747 5744 5739 5736 5734 5732 5730 5728 5726 5724 5722 5722 5721 5718 5716 5713 5712 5711 5711 5711 5711
5747 5760 5772 5778 5766 5767 5761 5735 5712 5711 5702 5709 5726 5721 5726 5752 5759 5758 5757 5758 5758 5757 5753 5749 5744 5739 5737 5735 5732 5730 5728 5725 5724 5722 5721 5721 5719 5718 5716 5714 5712 5711 5710 5710
5727 5733 5761 5771 5765 5754 5751 5737 5711 5701 5698 5708 5722 5719 5740 5763 5766 5765 5763 5761 5760 5757 5755 5752 5748 5744 5740 5737 5734 5730 5727 5725 5724 5722 5721 5721 5720 5719 5718 5717 5715 5714 5714 5714
5724 5730 5763 5773 5775 5765 5746 5735 5737 5713 5708 5703 5712 5726 5747 5764 5763 5763 5762 5760 5758 5757 5756 5754 5750 5747 5743 5739 5736 5733 5729 5726 5725 5724 5722 5720 5720 5719 5718 5717 5716 5715 5715 5714
5740 5732 5752 5767 5770 5764 5758 5740 5721 5709 5698 5696 5710 5719 5728 5750 5755 5758 5758 5757 5757 5757 5755 5754 5751 5748 5745 5742 5739 5736 5732 5729 5727 5725 5723 5722 5720 5719 5718 5717 5715 5715 5715 5714
5744 5732 5740 5750 5750 5747 5743 5735 5723 5708 5707 5695 5695 5715 5750 5753 5757 5756 5758 5758 5758 5756 5755 5754 5752 5750 5747 5743 5739 5736 5733 5729 5726 5725 5723 5722 5720 5719 5718 5716 5716 5715 5714 5713
5738 5724 5720 5735 5752 5759 5752 5739 5724 5714 5707 5702 5699 5718 5761 5759 5759 5758 5757 5758 5758 5756 5755 5753 5751 5749 5746 5742 5739 5736 5733 5729 5728 5726 5724 5722 5720 5718 5716 5715 5715 5714 5713 5712
5732 5717 5707 5716 5728 5742 5741 5738 5731 5720 5707 5696 5697 5722 5759 5758 5757 5757 5756 5756 5756 5754 5752 5750 5747 5745 5744 5742 5739 5737 5734 5731 5729 5726 5723 5720 5719 5717 5716 5715 5714 5713 5712 5710
5731 5712 5707 5706 5715 5728 5730 5732 5727 5720 5705 5700 5710 5728 5747 5751 5752 5752 5753 5752 5752 5751 5749 5745 5743 5742 5741 5740 5738 5736 5734 5731 5728 5725 5722 5719 5718 5717 5716 5715 5713 5711 5710 5708
5721 5707 5712 5716 5726 5728 5729 5731 5728 5724 5722 5716 5725 5729 5744 5749 5750 5750 5750 5749 5747 5746 5743 5741 5739 5738 5737 5736 5736 5734 5732 5729 5727 5723 5720 5718 5717 5716 5713 5711 5710 5709 5707 5705
5705 5702 5704 5708 5720 5722 5722 5729 5729 5728 5728 5726 5729 5732 5748 5748 5747 5745 5744 5744 5741 5740 5739 5737 5735 5734 5733 5732 5732 5730 5728 5727 5724 5719 5716 5714 5714 5712 5709 5707 5706 5704 5703 5701
5689 5689 5686 5685 5704 5708 5702 5723 5727 5728 5733 5731 5726 5737 5743 5739 5738 5737 5737 5738 5736 5734 5732 5730 5729 5728 5728 5727 5726 5724 5722 5721 5718 5713 5711 5709 5708 5705 5704 5702 5700 5698 5696 5695
5679 5675 5670 5672 5683 5675 5707 5731 5734 5731 5732 5735 5736 5737 5737 5734 5731 5731 5732 5731 5729 5728 5725 5723 5722 5722 5721 5721 5720 5718 5716 5712 5710 5707 5704 5702 5700 5698 5697 5695 5693 5691 5689 5687
5673 5669 5661 5659 5663 5676 5701 5718 5721 5718 5719 5732 5731 5730 5728 5726 5724 5719 5721 5723 5721 5719 5717 5715 5715 5714 5714 5712 5711 5710 5706 5703 5700 5697 5695 5693 5692 5691 5689 5687 5685 5684 5681 5678
5663 5661 5656 5653 5656 5660 5691 5712 5718 5714 5706 5727 5729 5725 5722 5720 5710 5708 5710 5710 5709 5708 5708 5706 5706 5706 5704 5702 5702 5699 5695 5692 5689 5687 5685 5684 5683 5682 5680 5677 5675 5672 5670 5666
5650 5649 5648 5648 5651 5666 5692 5703 5707 5690 5703 5721 5723 5722 5718 5713 5710 5705 5701 5699 5698 5697 5696 5695 5695 5693 5690 5690 5691 5687 5683 5678 5677 5676 5675 5674 5673 5670 5668 5666 5663 5660 5656 5652
5641 5640 5641 5641 5643 5658 5688 5691 5690 5696 5707 5712 5713 5712 5709 5705 5700 5695 5690 5688 5686 5684 5683 5683 5682 5678 5677 5677 5679 5674 5669 5666 5666 5665 5663 5661 5659 5658 5655 5653 5650 5647 5643 5639
5638 5640 5641 5645 5652 5668 5677 5681 5690 5695 5698 5701 5702 5702 5701 5696 5689 5683 5678 5675 5672 5671 5670 5669 5669 5666 5664 5663 5664 5660 5656 5656 5655 5653 5649 5647 5645 5642 5640 5638 5635 5631 5628 5625
5638 5641 5640 5644 5655 5664 5671 5677 5684 5690 5692 5693 5693 5691 5690 5685 5679 5673 5667 5662 5659 5657 5656 5656 5656 5654 5650 5648 5648 5645 5644 5644 5643 5639 5635 5633 5630 5627 5624 5622 5619 5616 5612 5609
5634 5637 5637 5642 5651 5657 5664 5669 5675 5680 5682 5682 5679 5679 5678 5675 5668 5664 5657 5652 5649 5646 5644 5644 5643 5640 5636 5634 5633 5632 5631 5632 5629 5625 5622 5618 5616 5612 5608 5605 5600 5598 5594 5592
5633 5635 5636 5640 5647 5649 5653 5661 5668 5669 5670 5670 5668 5664 5662 5662 5657 5652 5646 5642 5639 5636 5634 5632 5629 5627 5624 5622 5620 5619 5619 5619 5616 5612 5608 5605 5601 5598 5594 5590 5584 5580 5577 5574